When you browse on this site, cookies collect data to enhance your experience and personalize the content and advertising you see.
Visit our Privacy Policy to learn more. By continuing to use the site, you agree to this use of cookies and data.
  • In Hungary
  • List of Countries
  • For 7 days
  • Water Temperature
  • Satellite Maps
  • Weather Map
  • News
  • Weather Widgets
  • user-avatar
    Login

    Hourly Weather Brilon

    Today, 23 February, Saturday

    Time Temperature Precipitation Wind Pressure Humidity
    00:00 +2°C° 0 mm 2 mps 739 mmHg 92%
    01:00 0°C° 0 mm 3 mps 739 mmHg 91%
    02:00 0°C° 0 mm 3 mps 739 mmHg 88%
    03:00 -1°C° 0 mm 3 mps 739 mmHg 84%
    04:00 -1°C° 0 mm 3 mps 739 mmHg 81%
    05:00 -1°C° 0 mm 2 mps 739 mmHg 80%
    06:00 -2°C° 0 mm 2 mps 739 mmHg 78%
    07:00 -2°C° 0 mm 2 mps 739 mmHg 77%
    08:00 +1°C° 0 mm 2 mps 740 mmHg 70%
    09:00 +2°C° 0 mm 2 mps 740 mmHg 62%
    10:00 +2°C° 0 mm 3 mps 740 mmHg 55%
    11:00 +4°C° 0 mm 3 mps 740 mmHg 50%
    12:00 +5°C° 0 mm 3 mps 740 mmHg 45%
    13:00 +7°C° 0 mm 3 mps 740 mmHg 40%
    14:00 +8°C° 0 mm 2 mps 740 mmHg 41%
    15:00 +8°C° 0 mm 2 mps 739 mmHg 43%
    16:00 +8°C° 0 mm 2 mps 739 mmHg 44%
    17:00 +6°C° 0 mm 2 mps 739 mmHg 49%
    18:00 +4°C° 0 mm 2 mps 739 mmHg 55%
    19:00 +3°C° 0 mm 2 mps 739 mmHg 60%
    20:00 +2°C° 0 mm 2 mps 739 mmHg 58%
    21:00 +2°C° 0 mm 2 mps 739 mmHg 57%
    22:00 +2°C° 0 mm 2 mps 739 mmHg 55%
    23:00 +2°C° 0 mm 2 mps 739 mmHg 52%

    Tomorrow, 24 February, Sunday

    Time Temperature Precipitation Wind Pressure Humidity
    00:00 +1°C° 0 mm 2 mps 739 mmHg 49%
    01:00 +1°C° 0 mm 2 mps 739 mmHg 46%
    02:00 +1°C° 0 mm 2 mps 739 mmHg 44%
    03:00 +1°C° 0 mm 2 mps 739 mmHg 43%
    04:00 +1°C° 0 mm 2 mps 739 mmHg 41%
    05:00 +2°C° 0 mm 1 mps 739 mmHg 40%
    06:00 +2°C° 0 mm 1 mps 739 mmHg 38%
    07:00 +2°C° 0 mm 1 mps 739 mmHg 37%
    08:00 +4°C° 0 mm 1 mps 739 mmHg 37%
    09:00 +6°C° 0 mm 1 mps 740 mmHg 36%
    10:00 +7°C° 0 mm 1 mps 740 mmHg 36%
    11:00 +9°C° 0 mm 1 mps 740 mmHg 34%
    12:00 +11°C° 0 mm 1 mps 740 mmHg 32%
    13:00 +12°C° 0 mm 1 mps 741 mmHg 30%
    14:00 +12°C° 0 mm 1 mps 740 mmHg 33%
    15:00 +12°C° 0 mm 1 mps 740 mmHg 37%
    16:00 +12°C° 0 mm 1 mps 740 mmHg 40%
    17:00 +10°C° 0 mm 1 mps 740 mmHg 44%
    18:00 +8°C° 0 mm 1 mps 739 mmHg 47%
    19:00 +6°C° 0 mm 1 mps 739 mmHg 51%
    20:00 +6°C° 0 mm 1 mps 739 mmHg 50%
    21:00 +6°C° 0 mm 1 mps 740 mmHg 49%
    22:00 +5°C° 0 mm 1 mps 740 mmHg 49%
    23:00 +5°C° 0 mm 1 mps 740 mmHg 49%

    Day after tomorrow, 25 February, Monday

    Time Temperature Precipitation Wind Pressure Humidity
    00:00 +5°C° 0 mm 1 mps 740 mmHg 49%
    01:00 +5°C° 0 mm 1 mps 740 mmHg 49%
    02:00 +5°C° 0 mm 1 mps 740 mmHg 50%
    03:00 +5°C° 0 mm 1 mps 740 mmHg 51%
    04:00 +5°C° 0 mm 1 mps 739 mmHg 52%
    05:00 +5°C° 0 mm 1 mps 739 mmHg 53%
    06:00 +5°C° 0 mm 1 mps 740 mmHg 55%
    07:00 +5°C° 0 mm 1 mps 740 mmHg 56%
    08:00 +7°C° 0 mm 1 mps 740 mmHg 55%
    09:00 +8°C° 0 mm 1 mps 740 mmHg 54%
    10:00 +9°C° 0 mm 0 mps 741 mmHg 52%
    11:00 +11°C° 0 mm 0 mps 741 mmHg 49%
    12:00 +13°C° 0 mm 0 mps 741 mmHg 46%
    13:00 +15°C° 0 mm 0 mps 741 mmHg 43%
    14:00 +14°C° 0 mm 0 mps 740 mmHg 45%
    15:00 +14°C° 0 mm 0 mps 740 mmHg 48%
    16:00 +14°C° 0 mm 0 mps 739 mmHg 50%
    17:00 +12°C° 0 mm 0 mps 739 mmHg 56%
    18:00 +10°C° 0 mm 0 mps 739 mmHg 63%
    19:00 +8°C° 0 mm 0 mps 739 mmHg 69%
    20:00 +8°C° 0 mm 1 mps 739 mmHg 70%
    21:00 +8°C° 0 mm 1 mps 739 mmHg 71%
    22:00 +8°C° 0 mm 1 mps 739 mmHg 71%
    23:00 +8°C° 0 mm 1 mps 739 mmHg 71%

    26 February, Tuesday

    Time Temperature Precipitation Wind Pressure Humidity
    00:00 +7°C° 0 mm 1 mps 739 mmHg 71%
    01:00 +7°C° 0 mm 1 mps 738 mmHg 70%
    02:00 +7°C° 0 mm 1 mps 738 mmHg 69%
    03:00 +7°C° 0 mm 1 mps 738 mmHg 69%
    04:00 +7°C° 0 mm 1 mps 738 mmHg 68%
    05:00 +5°C° 0 mm 0 mps 737 mmHg 68%
    06:00 +5°C° 0 mm 0 mps 737 mmHg 68%
    07:00 +5°C° 0 mm 0 mps 737 mmHg 68%
    08:00 +7°C° 0 mm 0 mps 737 mmHg 64%
    09:00 +9°C° 0 mm 0 mps 738 mmHg 60%
    10:00 +11°C° 0 mm 0 mps 738 mmHg 57%
    11:00 +12°C° 0 mm 0 mps 738 mmHg 52%
    12:00 +14°C° 0 mm 0 mps 738 mmHg 48%
    13:00 +15°C° 0 mm 0 mps 738 mmHg 43%
    14:00 +16°C° 0 mm 1 mps 738 mmHg 45%
    15:00 +16°C° 0 mm 1 mps 737 mmHg 48%
    16:00 +15°C° 0 mm 1 mps 737 mmHg 50%
    17:00 +13°C° 0 mm 1 mps 737 mmHg 57%
    18:00 +10°C° 0 mm 0 mps 736 mmHg 64%
    19:00 +8°C° 0 mm 0 mps 736 mmHg 70%
    20:00 +8°C° 0 mm 0 mps 736 mmHg 70%
    21:00 +7°C° 0 mm 0 mps 736 mmHg 71%
    22:00 +7°C° 0 mm 0 mps 736 mmHg 71%
    23:00 +8°C° 0 mm 1 mps 736 mmHg 70%

    27 February, Wednesday

    Time Temperature Precipitation Wind Pressure Humidity
    00:00 +8°C° 0 mm 1 mps 736 mmHg 69%
    01:00 +8°C° 0 mm 1 mps 735 mmHg 68%
    02:00 +7°C° 0 mm 1 mps 735 mmHg 68%
    03:00 +7°C° 0 mm 1 mps 735 mmHg 68%
    04:00 +7°C° 0 mm 1 mps 734 mmHg 67%
    05:00 +7°C° 0 mm 1 mps 734 mmHg 67%
    06:00 +7°C° 0 mm 1 mps 734 mmHg 66%
    07:00 +7°C° 0 mm 1 mps 734 mmHg 66%
    08:00 +8°C° 0 mm 1 mps 734 mmHg 62%
    09:00 +10°C° 0 mm 1 mps 734 mmHg 59%
    10:00 +12°C° 0 mm 1 mps 734 mmHg 55%
    11:00 +14°C° 0 mm 1 mps 734 mmHg 51%
    12:00 +15°C° 0 mm 1 mps 733 mmHg 46%
    13:00 +18°C° 0 mm 1 mps 733 mmHg 42%
    14:00 +18°C° 0 mm 1 mps 733 mmHg 44%
    15:00 +16°C° 0 mm 2 mps 732 mmHg 47%
    16:00 +16°C° 0 mm 2 mps 731 mmHg 50%
    17:00 +14°C° 0 mm 2 mps 731 mmHg 57%
    18:00 +12°C° 0 mm 2 mps 731 mmHg 65%
    19:00 +9°C° 0 mm 2 mps 730 mmHg 73%
    20:00 +8°C° 0 mm 2 mps 730 mmHg 72%
    21:00 +8°C° 0 mm 2 mps 730 mmHg 71%
    22:00 +7°C° 0 mm 2 mps 730 mmHg 70%
    23:00 +7°C° 0 mm 2 mps 730 mmHg 69%

    28 February, Thursday

    Time Temperature Precipitation Wind Pressure Humidity
    00:00 +7°C° 0 mm 2 mps 729 mmHg 68%
    01:00 +6°C° 0 mm 2 mps 729 mmHg 68%
    02:00 +6°C° 0 mm 2 mps 729 mmHg 70%
    03:00 +6°C° 0 mm 2 mps 729 mmHg 73%
    04:00 +6°C° 0 mm 2 mps 728 mmHg 76%
    05:00 +5°C° 0 mm 2 mps 728 mmHg 78%
    06:00 +4°C° 0 mm 3 mps 728 mmHg 81%
    07:00 +4°C° 0 mm 3 mps 728 mmHg 83%
    08:00 +5°C° 0 mm 3 mps 728 mmHg 79%
    09:00 +7°C° 0 mm 4 mps 728 mmHg 75%
    10:00 +8°C° 0 mm 4 mps 728 mmHg 71%
    11:00 +10°C° 0 mm 4 mps 728 mmHg 70%
    12:00 +10°C° 0 mm 5 mps 728 mmHg 69%
    13:00 +12°C° 0 mm 5 mps 728 mmHg 69%
    14:00 +12°C° 0 mm 5 mps 727 mmHg 70%
    15:00 +10°C° 0 mm 5 mps 727 mmHg 71%
    16:00 +10°C° 0 mm 5 mps 727 mmHg 73%
    17:00 +10°C° 0 mm 4 mps 727 mmHg 78%
    18:00 +8°C° 0 mm 4 mps 727 mmHg 83%
    19:00 +8°C° 0 mm 3 mps 727 mmHg 88%
    20:00 +8°C° 0 mm 3 mps 727 mmHg 90%
    21:00 +6°C° 0 mm 4 mps 727 mmHg 92%
    22:00 +6°C° 0 mm 4 mps 727 mmHg 94%
    23:00 +5°C° 0 mm 4 mps 727 mmHg 93%
    Show more